GFSSGP_925_thetae_117.txt.gz
Theta_e
308 310 315 320 319 312 313 315 317 318 319 321 323 322 325 329 338 342 346 342 333 328 331 335 335 337 339 339 338 338 339 339 340 338 335 335 335 335 335 336 339 341 341 340 340 340 338 335 334
308 316 318 316 315 314 313 317 317 317 321 321 322 322 326 333 336 340 343 337 323 324 330 333 333 334 336 337 337 337 337 338 339 339 336 336 335 335 336 338 340 342 341 341 340 338 335 334 334
313 315 316 316 314 314 314 317 318 321 321 322 322 322 324 332 337 336 341 328 323 325 328 329 330 332 334 335 336 335 336 338 340 340 338 336 336 336 338 339 339 341 341 340 339 336 335 333 333
312 321 320 314 314 314 315 317 317 320 321 321 322 322 326 333 336 339 340 327 326 331 327 327 330 333 334 334 334 335 337 339 341 340 339 337 337 337 339 340 340 341 341 339 339 337 336 334 334
316 318 316 313 313 315 316 317 317 318 320 321 321 321 327 333 336 339 339 336 336 337 328 327 330 332 333 333 334 336 337 339 341 341 340 338 337 337 338 340 340 340 338 337 336 335 331 334 334
319 316 315 316 316 316 317 317 318 318 321 322 321 322 327 334 335 336 339 339 339 340 327 329 331 331 333 332 333 335 337 339 340 340 340 339 337 337 337 339 340 339 339 336 336 335 332 333 334
321 318 317 316 317 318 318 318 319 320 321 321 321 321 327 331 334 335 338 339 340 341 332 330 332 332 332 332 332 334 336 338 339 340 340 340 338 337 337 339 339 337 336 335 335 334 332 332 333
318 318 322 320 318 318 318 319 319 319 320 321 319 319 320 329 336 336 340 340 342 343 338 331 333 332 332 332 332 332 334 336 335 339 341 340 339 338 337 337 338 336 336 335 335 333 330 331 334
315 320 321 320 319 319 319 320 320 319 319 318 319 320 332 335 336 339 341 345 347 347 344 332 333 332 332 332 333 333 334 335 335 339 339 341 340 338 338 337 336 336 335 335 334 331 330 333 332
315 319 321 318 319 321 321 320 320 318 317 318 319 328 331 337 336 336 339 341 344 348 347 341 334 333 333 334 333 333 333 334 335 337 339 340 339 338 338 336 336 335 335 334 333 330 331 331 331
314 318 319 319 319 319 319 320 320 318 315 317 318 325 326 326 334 334 337 341 342 343 344 345 341 336 335 336 335 334 334 334 334 335 336 338 339 338 339 337 336 335 334 334 333 330 331 329 331
312 315 316 317 318 318 319 318 319 318 317 318 317 321 324 325 325 333 332 339 342 343 343 344 344 343 341 344 343 339 335 334 334 334 336 338 337 338 340 338 338 335 335 334 331 330 329 330 330
309 312 314 316 317 318 319 319 319 319 319 319 320 319 318 321 322 326 335 335 342 342 342 341 342 344 343 342 342 341 339 337 337 337 338 340 341 338 338 338 338 337 336 334 333 331 330 330 331
313 313 313 315 316 317 320 320 318 320 319 319 319 317 318 319 319 320 321 323 330 341 340 340 341 342 343 341 342 341 342 341 340 339 338 338 341 341 340 338 337 337 336 335 334 333 331 331 331
313 313 314 315 315 316 318 319 320 319 318 318 318 317 316 316 317 317 320 321 322 329 339 338 340 341 342 341 341 341 342 342 340 341 339 338 338 342 340 339 338 337 336 335 334 333 332 332 330
304 308 312 314 316 316 317 320 320 318 318 318 317 316 317 316 316 318 320 321 321 321 328 338 339 341 342 342 340 342 341 343 342 342 341 340 340 340 340 338 337 337 336 335 334 333 332 332 331
304 307 310 314 314 316 317 319 319 317 319 319 318 318 317 317 316 319 320 321 320 321 323 336 339 341 342 343 342 340 342 343 344 341 340 340 341 342 341 339 337 336 336 334 333 332 331 331 331
306 307 308 313 313 315 317 317 316 316 317 318 318 318 318 318 318 319 320 321 321 321 324 328 339 340 341 343 344 343 340 341 342 342 341 339 339 339 340 339 337 336 335 334 333 332 332 331 330
306 308 309 312 314 315 316 317 316 315 316 316 316 316 316 318 318 319 319 321 321 320 321 327 343 342 343 344 344 344 343 341 340 340 340 340 338 337 337 339 336 336 335 333 332 332 331 330 329
305 305 309 313 315 317 317 319 317 317 316 317 316 314 316 318 318 319 319 320 323 323 324 328 342 344 343 343 342 342 344 343 342 340 339 338 339 337 335 336 335 335 335 332 331 330 329 329 328
305 305 307 311 316 318 317 319 318 319 315 316 317 316 317 318 318 320 320 319 323 324 325 325 326 338 344 342 342 342 341 342 340 339 338 337 337 336 334 334 333 333 333 331 329 328 327 326 326
305 304 306 309 311 323 318 317 317 319 316 315 315 315 317 318 319 319 321 319 322 324 325 326 327 327 328 331 340 341 341 339 340 338 337 336 336 336 334 333 332 333 332 330 328 326 326 324 323
305 305 305 309 314 319 319 320 313 313 314 314 314 315 314 317 316 318 321 321 323 324 325 326 326 327 327 327 328 335 337 337 338 337 336 335 334 335 336 334 332 332 331 329 327 326 325 324 323
306 305 307 315 318 321 316 315 313 312 314 314 314 316 316 316 318 320 319 319 320 319 319 319 320 321 322 323 326 331 336 336 335 334 333 333 333 333 335 332 331 330 329 328 327 325 325 325 323
306 305 317 321 321 317 314 314 315 313 314 314 315 316 319 318 318 318 320 318 317 317 316 316 316 316 317 319 321 322 331 335 334 333 332 331 330 330 333 332 331 330 329 327 326 325 325 324 323
308 313 315 320 317 314 313 316 313 313 313 313 315 320 318 318 319 320 318 316 316 316 315 314 314 313 313 315 317 319 321 332 334 333 332 331 331 331 331 332 331 330 329 326 325 324 325 323 322
311 313 313 318 319 319 313 312 313 314 316 318 320 318 317 320 319 318 317 315 315 315 314 313 312 311 310 310 310 313 316 321 333 333 332 332 332 331 331 331 331 329 327 326 324 324 324 323 321
310 311 316 320 324 325 325 316 318 319 322 322 323 322 321 319 318 316 315 314 314 314 312 310 309 308 307 307 307 308 312 318 330 332 331 329 332 331 330 330 330 328 327 325 323 323 323 322 321
313 313 316 317 317 319 326 324 319 321 320 324 324 322 319 316 314 313 311 310 309 309 309 307 306 305 304 304 304 305 311 319 326 330 328 328 331 329 329 329 328 328 325 325 323 322 322 321 320
314 315 313 315 317 314 319 322 321 323 323 324 322 318 315 312 310 309 308 307 305 305 305 303 302 302 301 301 301 303 311 323 326 327 326 329 331 329 328 327 326 325 324 323 323 322 321 320 319

GFSSGP_925_thetae_120.txt.gz
Theta_e
308 309 314 319 315 310 312 313 313 315 315 319 320 324 328 330 335 337 344 343 336 333 338 339 339 339 339 339 339 339 339 339 337 335 334 333 333 334 336 337 338 339 339 339 338 338 337 336 334
308 315 317 312 315 312 312 312 315 315 315 317 320 323 330 338 338 344 343 344 335 329 335 336 337 338 338 338 338 338 338 339 338 336 335 334 334 334 335 338 340 340 340 339 338 337 335 333 334
311 315 312 315 312 313 311 313 314 315 316 319 321 320 326 336 343 342 340 335 332 330 333 335 337 337 336 336 336 337 338 338 338 337 336 335 335 335 336 340 341 341 341 340 338 336 334 334 334
308 319 317 317 315 312 313 313 314 315 315 317 320 321 329 336 340 339 335 329 329 330 332 334 335 333 333 334 335 335 336 337 338 338 336 336 336 336 337 338 341 340 339 339 337 336 334 333 333
314 315 320 315 314 312 313 314 314 315 315 317 319 320 329 334 338 335 327 327 325 329 331 332 333 332 333 334 333 334 336 338 339 338 337 336 336 336 338 338 340 340 339 338 337 334 333 333 333
318 314 315 318 318 314 313 314 315 316 317 317 319 323 328 336 340 336 327 326 323 327 330 332 333 333 332 332 332 334 335 338 340 339 338 336 336 336 338 338 339 339 337 336 336 332 330 333 333
319 316 317 316 315 316 316 316 316 317 318 318 319 321 330 337 340 333 329 327 327 327 329 332 333 333 332 331 332 333 336 338 339 339 338 337 336 336 337 338 339 338 337 335 335 333 331 333 333
317 317 320 317 320 317 317 317 317 316 315 318 318 322 333 332 338 338 337 339 333 329 329 330 332 333 332 333 332 332 334 337 339 339 339 338 336 336 336 337 338 338 336 335 334 332 329 331 332
312 314 323 322 320 321 318 318 318 318 316 316 318 316 328 332 339 344 344 343 338 333 330 330 331 333 333 332 333 333 333 336 337 339 339 339 338 337 337 337 338 337 337 335 334 332 329 330 333
310 315 319 319 319 320 320 318 317 318 316 315 328 330 330 336 341 343 344 345 343 339 334 330 330 332 334 333 334 333 334 336 334 338 335 338 339 338 338 336 337 336 336 335 334 333 330 330 332
308 314 316 318 317 317 318 318 318 316 318 316 322 330 333 336 338 341 343 344 344 342 339 332 332 332 333 333 333 333 334 335 335 336 335 335 339 338 338 337 337 336 336 335 334 333 329 330 331
305 307 310 313 315 316 317 315 317 315 317 317 316 328 333 335 336 338 339 341 344 344 341 339 331 332 333 333 332 332 333 333 333 334 336 335 338 338 338 337 337 336 336 334 334 333 329 330 329
310 309 308 309 311 313 315 316 317 317 316 318 317 320 321 332 334 336 338 339 341 343 343 340 336 330 331 333 333 332 332 332 332 333 334 335 335 337 337 337 336 336 335 334 334 333 330 329 329
306 306 309 310 310 311 313 314 315 317 317 317 317 315 315 317 320 328 335 338 340 341 341 341 339 336 331 332 333 334 334 332 332 332 333 333 335 335 337 338 338 337 335 334 334 332 330 329 329
305 304 304 307 311 312 312 313 315 316 316 317 316 314 314 315 316 318 327 333 340 340 341 342 342 342 340 338 339 338 338 337 334 334 334 334 337 339 337 338 338 338 337 336 334 333 332 331 330
304 304 304 305 308 311 312 314 314 315 316 318 315 314 314 314 315 317 319 321 336 340 340 340 342 343 342 342 340 340 340 340 340 340 336 336 336 339 341 339 338 337 336 336 335 334 333 331 331
303 304 304 304 306 309 312 314 315 314 316 318 317 314 314 312 313 316 319 319 319 324 339 339 340 342 342 342 341 340 340 341 342 341 339 339 337 338 340 341 339 338 337 336 335 334 333 332 331
303 303 303 303 304 307 310 314 315 314 315 318 317 314 314 314 314 315 319 320 320 320 320 337 338 340 341 341 341 341 341 341 341 341 341 341 339 339 339 340 339 338 337 336 335 334 333 332 330
306 305 304 304 304 306 307 311 313 314 314 316 316 314 314 315 316 316 318 319 320 320 319 328 336 339 341 341 341 340 342 342 342 342 341 341 340 340 341 341 339 337 336 335 334 333 332 331 330
303 306 308 306 304 305 307 310 312 313 314 315 315 312 314 313 314 315 316 316 318 319 319 325 336 339 341 342 341 341 339 340 341 342 342 340 340 340 340 340 340 338 336 335 334 332 331 330 330
305 304 305 308 304 304 314 317 315 316 314 313 313 312 312 312 314 316 316 315 318 322 329 332 338 340 341 341 342 342 341 340 339 340 340 340 340 339 339 337 336 335 335 334 334 332 330 328 328
308 304 305 307 305 306 316 320 314 316 317 314 313 312 312 313 315 316 316 316 320 322 327 337 341 342 342 342 341 340 339 339 341 340 339 339 339 339 338 336 335 335 335 334 333 331 329 328 326
309 306 305 307 305 304 312 322 318 313 316 317 312 312 313 311 315 320 319 318 317 318 319 319 320 320 323 324 330 339 340 339 339 340 339 339 338 338 337 337 335 333 332 333 333 330 328 328 325
311 307 308 306 306 307 309 319 316 312 315 314 312 312 313 319 321 319 317 316 314 315 315 316 316 314 315 316 319 320 326 331 335 337 336 336 336 337 336 336 335 333 332 332 331 330 327 326 325
311 309 309 309 311 317 315 320 318 313 311 312 314 315 318 320 319 317 316 314 313 312 312 312 313 311 311 311 311 312 314 317 324 333 336 335 334 334 334 334 334 333 332 331 331 329 326 325 324
313 309 307 313 318 316 316 317 312 311 312 311 314 319 320 319 317 315 314 313 312 311 309 309 309 308 309 309 309 309 310 312 314 322 332 333 334 334 334 331 333 332 332 331 330 329 327 324 324
309 307 306 315 318 315 312 311 310 317 318 314 320 319 318 316 314 313 312 311 309 308 307 306 306 306 306 306 307 308 308 310 311 316 327 331 333 332 331 330 330 331 332 330 329 328 326 324 323
312 309 315 317 320 319 322 317 322 325 324 321 318 315 313 311 310 309 307 307 306 305 304 303 302 302 302 303 303 303 304 306 311 313 319 329 332 331 330 331 330 329 330 330 329 326 325 323 323
314 313 315 317 318 322 324 327 323 325 323 319 315 313 311 309 307 305 304 304 303 302 301 300 300 299 299 300 300 300 302 302 306 312 318 323 330 331 331 331 331 329 329 329 327 325 324 322 322
314 316 316 316 321 319 319 322 320 319 318 316 314 311 309 307 304 303 301 300 299 298 298 297 297 297 297 297 298 298 299 300 303 311 321 323 328 329 328 330 330 329 327 328 326 324 322 322 322

GFSSGP_925_thetae_123.txt.gz
Theta_e
310 308 314 317 314 310 311 310 311 312 314 314 316 320 323 331 336 334 341 342 339 339 341 340 340 339 339 340 339 339 337 334 333 333 333 334 336 337 338 337 338 338 338 338 337 337 338 337 336
308 314 316 310 309 311 307 310 313 312 313 314 316 323 329 337 338 343 342 342 340 338 341 341 340 339 339 339 339 339 338 335 333 333 334 334 336 336 336 337 338 338 338 339 338 336 334 333 334
314 315 311 313 310 309 306 310 312 314 313 314 318 318 329 337 342 342 342 341 337 339 339 339 339 339 339 339 338 338 338 337 335 334 334 334 334 336 337 339 339 339 338 338 338 334 333 334 335
310 314 312 317 315 312 310 312 312 313 314 314 318 317 328 336 341 341 343 337 335 336 337 337 337 338 338 338 337 337 338 337 336 335 334 334 334 335 338 339 340 340 339 338 335 333 333 334 335
316 314 315 318 318 314 311 311 313 313 313 314 314 316 328 336 339 341 342 334 329 335 335 335 336 336 337 336 336 337 337 337 337 336 335 334 334 335 337 338 339 339 339 336 334 333 333 333 335
316 313 318 318 314 314 313 312 314 314 315 316 316 317 330 335 339 340 336 330 328 330 332 333 334 335 335 335 335 335 334 336 337 336 335 335 335 336 336 337 339 339 337 336 333 332 332 333 334
317 314 318 318 314 315 315 315 314 315 316 315 316 319 330 339 338 336 332 331 331 330 331 332 333 334 334 334 333 333 334 336 337 337 336 335 335 336 336 337 338 338 337 336 333 330 329 333 333
316 316 319 317 319 318 317 317 316 316 315 313 317 330 335 333 336 334 335 334 332 331 330 332 334 335 334 333 333 334 335 337 338 338 337 336 336 336 337 337 338 337 335 334 334 332 330 333 334
311 315 319 317 318 319 317 318 317 316 316 316 315 321 327 337 337 338 337 335 335 334 332 333 334 334 334 334 334 334 336 337 338 338 338 337 336 337 337 338 338 337 336 335 334 333 330 331 333
307 309 315 316 318 320 320 319 316 316 317 316 317 321 331 340 339 339 338 336 335 335 335 334 333 334 334 334 335 336 337 338 338 338 339 338 337 336 336 336 338 338 336 335 334 332 330 330 332
305 309 310 315 316 316 316 316 316 316 318 318 317 316 331 339 340 338 338 336 333 332 334 335 334 331 333 334 338 337 339 339 338 337 338 338 338 337 337 337 338 338 337 336 335 334 332 330 332
303 304 305 308 311 312 313 314 316 314 316 315 314 315 330 337 340 339 339 339 337 333 332 333 333 333 333 333 337 339 340 338 337 336 336 336 339 338 337 337 337 338 337 336 335 334 332 329 331
302 306 308 307 307 306 307 310 313 314 315 315 315 315 322 334 338 339 340 341 341 338 334 331 331 331 332 333 332 334 336 336 333 335 335 333 337 337 337 336 336 336 336 336 335 333 332 330 331
302 303 303 303 303 304 308 308 309 312 313 314 315 315 314 324 334 337 338 339 342 341 338 333 330 330 331 331 331 330 330 330 332 333 333 334 333 335 336 336 337 336 335 335 334 333 332 330 330
303 303 303 303 303 303 305 308 309 310 311 313 314 315 314 315 321 327 334 336 339 341 341 339 334 330 331 331 331 331 331 331 331 331 332 333 334 334 335 336 336 336 336 335 334 334 333 331 329
303 302 302 302 302 303 305 306 308 311 311 312 313 315 313 314 313 321 328 334 337 339 340 341 340 336 332 332 333 332 331 331 331 332 332 332 332 334 334 335 337 337 336 335 334 334 332 331 330
303 302 302 302 302 302 303 304 305 308 311 312 313 314 314 314 312 313 318 329 334 338 339 340 342 340 337 334 333 333 334 334 333 333 332 332 333 334 337 337 337 337 337 337 335 334 332 332 331
300 300 301 301 301 302 302 303 304 305 309 312 313 314 314 313 315 314 315 320 328 335 338 339 340 341 341 340 338 338 339 339 338 337 335 336 334 335 337 339 339 338 337 336 335 334 333 333 331
303 303 303 303 304 304 304 303 303 304 305 308 313 314 314 315 313 315 318 316 317 319 334 338 338 340 341 341 340 339 339 339 339 340 340 340 337 338 337 337 339 340 338 337 336 334 333 332 331
304 304 304 303 303 304 305 305 303 304 305 307 311 314 313 313 312 313 314 317 317 315 317 331 337 338 340 340 340 339 339 339 339 340 340 340 340 340 338 337 338 339 338 337 336 335 331 330 331
306 307 306 306 306 303 304 305 303 304 306 309 310 313 314 312 313 314 314 314 315 315 314 317 327 334 338 340 340 339 339 339 340 340 340 340 341 340 340 339 339 340 337 336 335 334 332 329 329
306 306 308 311 309 306 303 305 306 307 312 313 311 311 310 309 311 313 317 318 318 322 328 332 333 336 338 340 339 339 337 337 339 339 341 341 340 340 340 340 340 339 339 337 335 334 333 331 328
309 309 311 307 305 304 305 308 307 309 314 314 311 311 310 311 312 317 316 315 314 314 316 320 325 327 333 339 339 337 335 336 335 338 338 339 340 340 339 339 339 338 337 335 334 333 332 331 328
311 311 309 307 306 308 306 308 308 312 313 314 313 311 319 318 316 315 314 313 311 311 311 311 311 311 314 318 319 320 327 323 329 332 335 338 337 337 338 339 338 336 336 335 334 332 333 331 329
310 308 308 308 309 309 307 308 307 309 313 314 315 321 319 317 315 313 311 310 308 308 308 308 308 307 308 310 311 312 313 314 317 320 329 333 335 335 336 337 337 336 335 335 333 331 332 330 328
313 307 309 307 315 313 313 311 316 315 312 319 319 318 316 313 312 310 309 308 307 305 304 304 304 304 305 306 307 308 309 310 311 314 317 326 332 333 335 335 335 335 334 334 332 330 330 330 328
313 314 309 309 314 316 316 315 319 319 319 318 317 314 311 309 308 307 306 305 303 302 301 301 301 301 301 302 304 306 307 307 308 310 312 315 325 330 332 333 334 334 334 330 331 329 329 329 328
313 310 313 314 319 320 316 319 324 321 316 314 312 310 308 306 304 304 303 301 300 299 299 299 298 298 298 299 300 300 301 303 304 306 309 313 317 324 329 331 331 332 330 329 329 329 329 327 326
314 317 316 316 318 322 321 323 322 319 316 313 310 307 305 303 301 301 300 299 298 297 296 296 296 296 297 297 297 298 298 299 301 303 306 310 315 319 326 329 330 330 328 328 328 328 327 326 325
313 315 315 318 319 319 320 322 317 315 313 311 309 306 304 301 300 298 298 297 296 295 294 294 294 294 295 295 296 297 298 299 299 301 304 307 312 319 322 328 329 329 328 327 327 326 326 325 323

GFSSGP_925_thetae_126.txt.gz
Theta_e
309 308 314 315 310 308 308 307 309 311 312 313 314 317 321 330 336 338 340 340 336 338 340 339 339 339 338 338 336 334 332 333 336 340 342 341 340 338 338 338 339 340 338 338 338 337 337 336 336
309 315 315 309 306 305 303 308 310 310 311 311 313 320 327 332 335 342 341 340 336 337 339 339 339 339 339 338 337 335 333 333 333 335 337 337 337 337 338 338 338 337 337 337 336 337 335 334 335
314 315 309 312 305 304 303 306 309 311 310 312 314 316 325 333 337 341 342 340 339 340 339 339 339 339 339 339 338 336 334 333 333 333 334 334 335 336 337 337 337 337 338 337 335 333 332 333 335
312 311 309 312 313 311 306 309 310 311 313 312 313 313 316 333 338 341 341 341 338 339 339 339 339 339 339 339 339 337 335 333 333 333 333 334 335 335 338 338 337 337 337 335 333 332 333 333 334
316 311 308 316 315 311 311 311 310 312 312 312 314 314 315 330 339 340 342 340 338 339 340 340 339 338 338 338 338 338 336 335 333 333 333 333 335 337 339 339 338 338 336 333 332 332 332 333 334
312 312 317 314 313 312 311 312 313 313 313 314 315 314 319 333 338 341 342 340 338 338 339 339 339 338 338 338 338 338 337 336 334 334 333 333 334 337 338 339 339 338 335 333 332 332 332 333 334
313 315 316 317 315 315 314 313 314 314 314 314 315 317 319 335 338 341 340 339 338 337 338 338 338 336 336 336 337 337 337 336 335 334 334 334 334 335 337 338 338 337 336 332 332 332 332 333 334
313 314 318 315 316 316 316 316 315 314 314 313 315 319 320 332 337 339 339 338 337 337 338 337 337 336 335 336 337 337 336 336 336 335 334 334 335 335 336 337 338 337 336 333 330 330 332 333 333
310 314 316 316 317 316 317 317 317 315 315 315 315 317 321 328 336 336 336 336 337 337 338 337 336 336 336 336 336 335 335 336 337 336 335 335 336 336 336 337 337 336 335 334 333 330 330 333 333
307 307 310 313 315 317 317 317 316 316 317 316 315 316 321 337 336 335 334 334 335 336 337 335 335 336 339 339 335 336 338 339 338 338 337 336 336 336 336 337 337 336 336 334 334 333 330 331 333
304 305 306 309 311 313 313 312 314 314 316 316 317 315 324 338 336 334 333 332 332 334 334 334 335 338 339 339 341 340 340 341 339 339 338 337 336 337 337 337 338 338 337 335 334 333 331 330 330
304 303 304 304 303 303 304 306 307 307 310 313 313 313 319 334 338 334 333 331 331 330 333 334 337 338 338 337 343 341 343 345 341 338 338 338 337 337 337 337 337 338 337 336 335 333 332 330 330
302 302 302 301 301 301 302 303 305 307 308 309 312 313 313 325 335 338 335 334 332 332 333 333 335 337 339 336 338 339 340 341 342 340 338 338 338 337 337 336 336 337 337 336 335 334 333 331 330
301 302 302 302 302 301 302 302 303 305 308 308 310 311 311 312 325 335 338 337 336 332 332 333 333 333 335 335 335 336 337 338 337 338 337 338 338 338 337 337 336 336 337 336 335 334 333 332 330
302 302 302 301 301 301 302 301 303 304 306 307 309 309 310 311 315 327 336 337 338 337 331 331 333 334 334 334 333 335 335 335 335 334 336 336 336 340 338 336 336 336 336 335 335 335 334 332 330
303 302 301 300 300 301 301 301 302 304 305 305 307 309 310 311 311 318 332 336 337 339 338 331 332 332 332 332 332 330 330 333 335 337 336 336 335 335 335 335 336 336 336 335 335 335 334 332 331
301 299 300 301 300 300 300 300 301 301 303 303 304 305 308 311 311 312 323 333 335 338 339 339 334 332 331 331 333 332 331 331 331 332 332 333 334 333 334 335 335 336 336 335 335 334 334 333 331
299 300 299 300 300 301 301 302 302 303 302 302 302 303 305 308 311 313 313 324 332 335 338 339 339 336 332 333 334 333 333 331 331 331 331 331 332 332 334 335 334 335 336 336 335 334 333 333 331
301 302 302 302 302 303 303 303 303 303 303 303 302 302 304 305 310 313 314 314 319 331 335 337 339 340 338 335 335 335 334 334 333 331 331 330 331 331 333 334 336 336 336 336 336 335 333 331 332
302 303 304 303 304 304 304 305 305 304 303 303 303 303 303 304 307 312 313 312 313 321 333 336 337 339 340 338 336 335 335 335 335 335 335 336 333 334 333 334 336 338 338 337 336 335 332 331 331
305 305 305 305 305 305 306 309 308 305 303 303 303 303 303 304 307 312 312 311 312 312 320 332 335 337 339 339 339 338 337 337 337 337 338 338 338 339 337 337 337 337 338 338 336 336 334 330 330
304 304 306 306 308 312 304 308 304 303 302 302 303 303 304 308 308 311 313 315 316 316 312 313 329 334 337 339 339 338 337 336 337 337 337 339 340 340 339 338 338 337 337 338 336 335 334 332 329
305 306 309 310 311 307 306 306 304 302 303 304 305 306 307 309 308 315 314 312 312 317 320 323 328 334 336 338 339 337 337 337 336 337 337 335 336 338 338 339 340 338 338 338 338 335 333 332 331
306 309 310 309 306 308 305 304 304 303 304 310 314 317 315 314 314 312 311 310 308 309 309 311 317 317 326 334 334 335 334 334 334 333 331 329 326 335 336 339 339 339 339 338 337 336 334 333 332
309 307 307 306 307 308 307 309 305 306 308 308 314 315 312 310 309 307 306 305 304 304 306 305 306 306 308 311 312 314 314 317 323 330 329 325 328 334 336 336 337 337 338 337 335 335 334 333 331
311 311 309 307 310 309 309 313 313 319 318 315 313 311 309 306 305 303 303 302 302 302 301 302 302 302 303 304 305 306 307 308 310 313 317 326 329 331 333 334 334 335 335 336 334 333 333 332 330
314 314 309 310 310 312 311 314 317 316 314 313 311 308 307 306 304 303 301 300 299 298 298 298 299 299 299 301 302 303 304 306 306 308 310 311 313 320 327 330 332 334 333 334 333 332 332 331 329
313 311 314 310 313 319 318 317 313 316 313 309 307 306 305 304 303 301 300 298 297 296 296 295 296 296 296 297 298 300 301 303 304 306 306 307 309 312 315 324 329 331 332 334 332 330 330 328 327
313 314 314 318 316 320 319 320 308 312 312 309 306 305 302 302 301 299 298 297 296 295 295 294 294 294 293 294 295 296 298 299 302 303 304 305 306 309 312 316 321 326 328 328 330 330 327 326 326
312 314 314 318 318 317 318 314 306 306 304 304 305 304 302 300 298 298 296 295 294 294 293 293 293 292 292 293 293 294 295 295 296 297 299 301 303 305 308 314 318 322 326 327 326 326 325 325 325

GFSSGP_925_thetae_129.txt.gz
Theta_e
309 308 315 314 313 313 312 310 311 312 314 314 314 317 320 327 335 330 340 337 339 340 338 338 339 337 335 333 333 334 336 339 341 340 339 340 338 337 338 340 340 339 339 339 338 337 336 337 337
309 314 314 315 310 309 310 310 312 313 313 314 315 319 323 331 332 338 343 340 340 339 338 339 339 338 336 335 333 334 336 339 340 340 341 340 338 336 338 338 337 338 338 337 336 336 335 335 335
314 315 315 317 311 311 311 308 312 312 313 314 316 316 319 331 335 342 341 338 342 340 338 339 339 338 337 336 334 334 336 338 340 341 341 339 337 336 338 337 337 337 336 335 335 334 333 333 334
313 314 314 314 314 312 308 311 311 314 314 313 315 316 317 324 335 342 341 339 343 342 339 339 339 338 338 337 335 333 334 335 337 338 338 337 336 337 337 338 337 336 336 335 333 331 332 333 334
315 313 312 316 314 314 313 313 314 315 315 314 316 317 318 323 339 340 341 340 342 343 340 339 339 339 339 338 336 334 333 333 334 334 334 335 336 336 336 337 338 338 336 333 331 332 332 333 333
313 317 316 315 314 314 314 314 315 315 315 316 316 317 320 333 338 341 343 340 342 342 341 339 339 339 339 339 337 335 334 333 333 333 333 334 335 336 337 337 337 337 334 332 331 332 332 333 333
313 318 316 317 317 317 317 315 316 317 318 318 316 319 321 330 331 338 341 341 340 341 340 340 339 339 339 339 338 336 335 334 333 333 333 333 335 337 339 338 337 336 333 331 331 332 332 333 333
317 318 318 317 318 318 317 317 317 317 318 316 316 319 321 321 329 336 341 340 340 340 340 340 341 340 339 339 338 338 336 335 334 333 333 333 336 337 338 339 338 336 333 331 331 331 332 333 333
313 314 317 316 317 317 318 318 318 318 318 319 318 318 318 327 331 337 339 339 338 339 340 340 340 340 339 338 338 338 337 336 335 334 334 334 337 338 339 339 338 336 334 331 329 331 332 333 332
309 312 312 313 316 316 313 313 313 315 317 317 317 318 317 333 336 337 338 340 338 338 338 339 339 340 341 339 339 339 339 339 337 336 336 336 336 338 340 339 338 336 336 332 329 329 332 333 333
305 308 307 307 308 304 306 307 309 309 312 316 316 315 316 317 320 334 336 337 337 337 338 338 338 339 339 338 341 340 340 340 340 339 338 339 337 337 337 338 340 338 336 337 334 331 333 332 333
306 305 305 305 304 304 305 305 306 307 308 309 309 310 311 314 316 323 333 335 333 333 336 337 338 338 337 338 339 341 340 340 339 339 337 337 338 338 339 340 340 340 339 339 338 336 334 330 330
304 303 303 303 303 304 303 303 304 305 305 306 306 308 310 312 314 316 326 331 333 331 334 335 336 337 337 338 338 339 339 341 342 342 338 337 338 337 337 339 339 340 339 338 336 336 333 331 330
303 303 303 303 304 303 303 303 303 304 305 305 306 307 308 311 313 314 317 329 333 332 332 334 334 335 336 337 338 338 339 338 339 340 344 343 338 337 337 337 338 338 338 337 337 335 334 333 331
303 303 303 302 302 303 303 303 303 304 304 305 305 305 306 308 310 312 313 320 331 333 331 332 333 336 335 336 337 336 337 339 337 338 343 344 341 337 337 337 337 338 338 337 336 335 334 333 331
304 303 303 302 303 302 303 304 305 303 304 305 306 307 306 305 306 308 312 314 322 333 334 331 332 333 337 336 335 335 336 335 337 337 338 341 341 340 337 339 337 336 336 337 336 334 334 333 332
302 303 303 303 302 303 303 304 304 304 305 305 306 305 306 306 306 305 307 312 315 327 336 333 332 333 334 334 334 334 334 334 334 334 334 338 340 340 337 338 337 335 336 336 335 335 334 332 331
302 303 303 303 303 303 304 304 305 305 305 306 306 306 305 306 306 305 305 307 312 322 336 336 333 332 333 335 334 334 333 334 333 334 333 335 337 338 339 337 334 335 335 335 335 334 333 333 332
303 304 304 304 304 304 306 306 307 307 306 306 306 306 306 306 306 305 305 307 311 317 334 339 336 333 333 334 334 334 333 333 333 333 333 334 334 335 337 334 334 334 335 335 335 334 332 331 332
304 305 305 305 306 307 307 307 307 307 307 307 308 308 308 306 306 307 306 306 310 314 330 338 339 336 333 332 333 333 333 333 333 333 334 333 333 333 333 333 334 334 334 334 334 334 332 331 331
306 306 307 307 307 308 307 308 308 307 306 306 306 306 306 307 306 306 306 306 308 313 319 335 338 339 337 334 334 334 335 334 334 333 333 333 333 333 333 333 332 333 334 335 334 334 333 331 331
307 305 306 306 310 313 309 311 307 307 307 307 305 305 305 305 305 306 306 306 311 313 315 328 336 339 339 338 337 336 336 335 335 334 334 334 334 334 334 334 334 333 335 335 335 335 334 333 331
308 305 307 309 311 311 308 308 308 309 310 308 307 310 315 315 307 305 305 306 316 318 317 325 333 336 339 340 339 337 338 338 338 336 334 335 338 336 335 335 334 334 335 335 335 335 334 334 333
307 309 311 310 310 309 307 308 311 310 313 312 316 312 311 312 310 312 312 311 311 311 314 317 318 318 329 334 337 338 337 336 335 337 335 334 335 334 333 328 324 325 333 335 335 335 334 334 333
310 312 313 310 310 309 307 310 311 315 312 309 311 306 306 304 304 305 305 306 306 306 308 309 311 309 313 320 323 326 327 330 330 332 332 332 329 327 329 327 325 324 330 334 334 334 333 333 332
309 312 314 315 312 313 310 312 316 309 308 304 306 302 304 303 303 302 301 301 301 302 302 303 304 304 304 305 306 309 313 317 319 320 322 324 327 329 326 325 324 326 332 332 334 335 333 332 332
316 315 312 313 311 312 312 314 314 306 307 304 303 302 300 301 302 301 300 299 299 298 298 298 299 300 300 300 302 303 304 305 306 307 310 312 315 318 324 329 330 332 334 334 333 331 333 333 331
313 313 316 314 315 315 315 315 310 307 305 304 302 300 299 299 299 300 298 297 297 296 296 296 296 296 296 297 298 299 300 301 302 303 304 306 308 309 310 313 320 326 328 329 331 330 330 329 332
312 311 312 313 315 319 320 313 306 304 304 302 301 299 298 297 297 296 297 296 295 295 295 294 294 294 295 295 295 297 296 297 299 299 300 303 304 305 307 309 311 314 320 326 329 329 329 328 328
307 310 312 315 317 316 318 310 305 304 302 301 300 298 296 296 295 295 294 293 293 293 293 293 293 293 293 293 294 294 294 295 297 298 299 300 301 302 303 305 308 312 316 320 325 328 328 328 327